Location: *
(17.3280°S, 114.7300°W)
Time: 15:13:05
(UTC+00:00)

Hubble Space Telescope - Pass Details

Date: 03 November 2020
Orbit: 536 x 540 km, 28.5° (Epoch: 29 November)

Event Time Altitude Azimuth Distance (km) Brightness Sun altitude
Exits shadow 10:55:24 15° 52° (NE) 1,519 3.3 -28.2°
Drops below altitude 10° 10:56:06 10° 54° (NE) 1,787 3.7 -28.1°
Sets 10:58:23 0° 58° (ENE) 2,674 4.7 -27.6°
